Time,TemperatureF,DewpointF,PressureIn,WindDirection,WindDirectionDegrees,WindSpeedMPH,WindSpeedGustMPH,Humidity,HourlyPrecipIn,Conditions,Clouds,dailyrainin,SoftwareType,DateUTC
2013-02-13 00:02:00,29.0,28.0,-100.00,South,185,2.0,4.0,96,-99.99,,,-99.99,,2013-02-13 06:02:00,
2013-02-13 00:11:00,28.0,28.0,-100.00,WSW,245,0.0,2.0,97,-99.99,,,-99.99,,2013-02-13 06:11:00,
2013-02-13 00:21:00,29.0,28.0,-100.00,WSW,255,1.0,2.0,97,-99.99,,,-99.99,,2013-02-13 06:21:00,
2013-02-13 00:32:00,28.0,28.0,-100.00,WSW,245,3.0,4.0,98,-99.99,,,-99.99,,2013-02-13 06:32:00,
2013-02-13 00:42:00,28.0,28.0,-100.00,WSW,245,3.0,4.0,98,-99.99,,,-99.99,,2013-02-13 06:42:00,
2013-02-13 00:52:00,29.0,28.0,-100.00,SW,225,4.0,5.0,98,-99.99,,,-99.99,,2013-02-13 06:52:00,
2013-02-13 01:02:00,29.0,28.0,-100.00,SW,225,4.0,5.0,98,-99.99,,,-99.99,,2013-02-13 07:02:00,
2013-02-13 01:11:00,28.0,28.0,-100.00,West,260,4.0,5.0,98,-99.99,,,-99.99,,2013-02-13 07:11:00,
2013-02-13 01:22:00,28.0,27.0,-100.00,SW,225,4.0,6.0,99,-99.99,,,-99.99,,2013-02-13 07:22:00,
2013-02-13 01:32:00,28.0,27.0,-100.00,SW,225,4.0,6.0,99,-99.99,,,-99.99,,2013-02-13 07:32:00,
2013-02-13 01:42:00,28.0,28.0,-100.00,WSW,255,4.0,7.0,99,-99.99,,,-99.99,,2013-02-13 07:42:00,
2013-02-13 01:52:00,28.0,27.0,-100.00,West,260,4.0,4.0,99,-99.99,,,-99.99,,2013-02-13 07:52:00,
2013-02-13 02:01:00,28.0,27.0,-100.00,West,260,4.0,4.0,99,-99.99,,,-99.99,,2013-02-13 08:01:00,
2013-02-13 02:11:00,29.0,29.0,-100.00,West,275,4.0,6.0,99,-99.99,,,-99.99,,2013-02-13 08:11:00,
2013-02-13 02:21:00,29.0,29.0,-100.00,WSW,250,3.0,4.0,99,-99.99,,,-99.99,,2013-02-13 08:21:00,
2013-02-13 02:32:00,29.0,29.0,-100.00,WSW,250,3.0,4.0,99,-99.99,,,-99.99,,2013-02-13 08:32:00,
2013-02-13 02:43:00,28.0,28.0,-100.00,WSW,255,4.0,4.0,99,-99.99,,,-99.99,,2013-02-13 08:43:00,
2013-02-13 02:52:00,28.0,28.0,-100.00,WSW,250,4.0,5.0,99,-99.99,,,-99.99,,2013-02-13 08:52:00,
2013-02-13 03:01:00,28.0,28.0,-100.00,WSW,250,4.0,5.0,99,-99.99,,,-99.99,,2013-02-13 09:01:00,
2013-02-13 03:11:00,28.0,28.0,-100.00,WSW,240,4.0,6.0,99,-99.99,,,-99.99,,2013-02-13 09:11:00,
2013-02-13 03:21:00,28.0,28.0,-100.00,WSW,245,4.0,5.0,99,-99.99,,,-99.99,,2013-02-13 09:21:00,
2013-02-13 03:31:00,28.0,28.0,-100.00,WSW,245,4.0,5.0,99,-99.99,,,-99.99,,2013-02-13 09:31:00,
2013-02-13 03:42:00,28.0,28.0,-100.00,WSW,250,5.0,6.0,99,-99.99,,,-99.99,,2013-02-13 09:42:00,
2013-02-13 03:52:00,28.0,27.0,-100.00,WSW,245,4.0,6.0,99,-99.99,,,-99.99,,2013-02-13 09:52:00,
2013-02-13 04:01:00,28.0,27.0,-100.00,WSW,245,4.0,6.0,99,-99.99,,,-99.99,,2013-02-13 10:01:00,
2013-02-13 04:11:00,27.0,27.0,-100.00,SW,230,4.0,5.0,99,-99.99,,,-99.99,,2013-02-13 10:11:00,
2013-02-13 04:21:00,27.0,27.0,-100.00,SW,235,4.0,6.0,99,-99.99,,,-99.99,,2013-02-13 10:21:00,
2013-02-13 04:32:00,27.0,27.0,-100.00,SW,235,4.0,6.0,99,-99.99,,,-99.99,,2013-02-13 10:32:00,
2013-02-13 04:42:00,27.0,26.0,-100.00,SSW,205,2.0,4.0,99,-99.99,,,-99.99,,2013-02-13 10:42:00,
2013-02-13 04:52:00,26.0,26.0,-100.00,SSW,200,2.0,5.0,99,-99.99,,,-99.99,,2013-02-13 10:52:00,
2013-02-13 05:01:00,26.0,26.0,-100.00,SSW,200,2.0,5.0,99,-99.99,,,-99.99,,2013-02-13 11:01:00,
2013-02-13 05:11:00,26.0,26.0,-100.00,SW,220,2.0,4.0,99,-99.99,,,-99.99,,2013-02-13 11:11:00,
2013-02-13 05:22:00,26.0,26.0,-100.00,SW,220,4.0,5.0,99,-99.99,,,-99.99,,2013-02-13 11:22:00,
2013-02-13 05:32:00,26.0,26.0,-100.00,SW,220,4.0,5.0,99,-99.99,,,-99.99,,2013-02-13 11:32:00,
2013-02-13 05:42:00,27.0,27.0,-100.00,SW,235,4.0,5.0,99,-99.99,,,-99.99,,2013-02-13 11:42:00,
2013-02-13 05:52:00,26.0,26.0,-100.00,WSW,245,4.0,5.0,99,-99.99,,,-99.99,,2013-02-13 11:52:00,
2013-02-13 06:02:00,26.0,26.0,-100.00,WSW,245,4.0,5.0,99,-99.99,,,-99.99,,2013-02-13 12:02:00,
2013-02-13 06:11:00,27.0,27.0,-100.00,West,260,5.0,6.0,99,-99.99,,,-99.99,,2013-02-13 12:11:00,
2013-02-13 06:22:00,27.0,27.0,-100.00,WSW,240,4.0,6.0,99,-99.99,,,-99.99,,2013-02-13 12:22:00,
2013-02-13 06:31:00,27.0,27.0,-100.00,SW,230,4.0,6.0,99,-99.99,,,-99.99,,2013-02-13 12:31:00,
2013-02-13 06:32:00,27.0,27.0,-100.00,WSW,240,4.0,6.0,99,-99.99,,,-99.99,,2013-02-13 12:32:00,
2013-02-13 06:42:00,27.0,27.0,-100.00,SW,235,4.0,6.0,99,-99.99,,,-99.99,,2013-02-13 12:42:00,
2013-02-13 06:52:00,27.0,27.0,-100.00,WSW,240,4.0,6.0,99,-99.99,,,-99.99,,2013-02-13 12:52:00,
2013-02-13 07:02:00,27.0,27.0,-100.00,WSW,240,4.0,6.0,99,-99.99,,,-99.99,,2013-02-13 13:02:00,
2013-02-13 07:11:00,27.0,27.0,-100.00,SW,230,4.0,6.0,99,-99.99,,,-99.99,,2013-02-13 13:11:00,
2013-02-13 07:21:00,27.0,27.0,-100.00,SW,230,4.0,6.0,99,-99.99,,,-99.99,,2013-02-13 13:21:00,
2013-02-13 07:42:00,28.0,28.0,-100.00,WSW,245,4.0,6.0,99,-99.99,,,-99.99,,2013-02-13 13:42:00,
2013-02-13 07:52:00,28.0,28.0,-100.00,SW,235,4.0,5.0,99,-99.99,,,-99.99,,2013-02-13 13:52:00,
2013-02-13 08:01:00,28.0,28.0,-100.00,SW,235,4.0,5.0,99,-99.99,,,-99.99,,2013-02-13 14:01:00,
2013-02-13 08:11:00,29.0,29.0,-100.00,SW,235,4.0,6.0,99,-99.99,,,-99.99,,2013-02-13 14:11:00,
2013-02-13 08:21:00,30.0,30.0,-100.00,WSW,250,4.0,6.0,99,-99.99,,,-99.99,,2013-02-13 14:21:00,
2013-02-13 08:31:00,30.0,30.0,-100.00,WSW,250,4.0,6.0,99,-99.99,,,-99.99,,2013-02-13 14:31:00,
2013-02-13 08:42:00,31.0,31.0,-100.00,SW,235,5.0,8.0,99,-99.99,,,-99.99,,2013-02-13 14:42:00,
2013-02-13 08:52:00,33.0,32.0,-100.00,SW,230,4.0,8.0,99,-99.99,,,-99.99,,2013-02-13 14:52:00,
2013-02-13 09:01:00,33.0,32.0,-100.00,SW,230,4.0,8.0,99,-99.99,,,-99.99,,2013-02-13 15:01:00,
2013-02-13 09:11:00,33.0,33.0,-100.00,West,280,11.0,14.0,99,-99.99,,,-99.99,,2013-02-13 15:11:00,
2013-02-13 09:21:00,33.0,33.0,-100.00,West,270,11.0,15.0,99,-99.99,,,-99.99,,2013-02-13 15:21:00,
2013-02-13 09:31:00,36.0,34.0,-100.00,West,260,10.0,13.0,93,-99.99,,,-99.99,,2013-02-13 15:31:00,
2013-02-13 09:32:00,33.0,33.0,-100.00,West,270,11.0,15.0,99,-99.99,,,-99.99,,2013-02-13 15:32:00,
2013-02-13 09:42:00,34.0,33.0,-100.00,West,265,9.0,12.0,98,-99.99,,,-99.99,,2013-02-13 15:42:00,
2013-02-13 09:52:00,35.0,34.0,-100.00,West,270,10.0,11.0,96,-99.99,,,-99.99,,2013-02-13 15:52:00,
2013-02-13 10:01:00,35.0,34.0,-100.00,West,270,10.0,11.0,96,-99.99,,,-99.99,,2013-02-13 16:01:00,
2013-02-13 10:11:00,36.0,34.0,-100.00,West,260,10.0,13.0,93,-99.99,,,-99.99,,2013-02-13 16:11:00,
2013-02-13 10:21:00,36.0,34.0,-100.00,West,260,10.0,13.0,93,-99.99,,,-99.99,,2013-02-13 16:21:00,
2013-02-13 10:42:00,38.0,34.0,-100.00,WSW,255,9.0,11.0,86,-99.99,,,-99.99,,2013-02-13 16:42:00,
2013-02-13 10:52:00,39.0,34.0,-100.00,WSW,250,5.0,11.0,82,-99.99,,,-99.99,,2013-02-13 16:52:00,
2013-02-13 11:01:00,39.0,34.0,-100.00,WSW,250,5.0,11.0,82,-99.99,,,-99.99,,2013-02-13 17:01:00,
2013-02-13 11:11:00,40.0,34.0,-100.00,WSW,240,5.0,10.0,79,-99.99,,,-99.99,,2013-02-13 17:11:00,
2013-02-13 11:21:00,40.0,34.0,-100.00,WSW,245,4.0,11.0,77,-99.99,,,-99.99,,2013-02-13 17:21:00,
2013-02-13 11:32:00,40.0,34.0,-100.00,WSW,245,4.0,11.0,77,-99.99,,,-99.99,,2013-02-13 17:32:00,
2013-02-13 11:42:00,41.0,34.0,-100.00,WSW,255,9.0,11.0,75,-99.99,,,-99.99,,2013-02-13 17:42:00,
2013-02-13 11:52:00,42.0,33.0,-100.00,WSW,255,7.0,11.0,72,-99.99,,,-99.99,,2013-02-13 17:52:00,
2013-02-13 12:02:00,42.0,33.0,-100.00,WSW,255,7.0,11.0,72,-99.99,,,-99.99,,2013-02-13 18:02:00,
2013-02-13 12:11:00,42.0,33.0,-100.00,West,265,9.0,12.0,70,-99.99,,,-99.99,,2013-02-13 18:11:00,
2013-02-13 12:23:00,42.0,33.0,-100.00,West,260,9.0,13.0,70,-99.99,,,-99.99,,2013-02-13 18:23:00,
2013-02-13 12:31:00,45.0,34.0,-100.00,WSW,250,8.0,14.0,67,-99.99,,,-99.99,,2013-02-13 18:31:00,
2013-02-13 12:32:00,42.0,33.0,-100.00,West,260,9.0,13.0,70,-99.99,,,-99.99,,2013-02-13 18:32:00,
2013-02-13 12:42:00,43.0,34.0,-100.00,West,260,11.0,13.0,69,-99.99,,,-99.99,,2013-02-13 18:42:00,
2013-02-13 12:52:00,44.0,34.0,-100.00,WSW,255,9.0,13.0,68,-99.99,,,-99.99,,2013-02-13 18:52:00,
2013-02-13 13:01:00,44.0,34.0,-100.00,WSW,255,9.0,13.0,68,-99.99,,,-99.99,,2013-02-13 19:01:00,
2013-02-13 13:11:00,45.0,34.0,-100.00,WSW,250,8.0,14.0,67,-99.99,,,-99.99,,2013-02-13 19:11:00,
2013-02-13 13:21:00,45.0,34.0,-100.00,WSW,250,8.0,14.0,67,-99.99,,,-99.99,,2013-02-13 19:21:00,
2013-02-13 15:11:00,45.0,32.0,-100.00,WNW,285,15.0,19.0,60,-99.99,,,-99.99,,2013-02-13 21:11:00,
2013-02-13 15:21:00,45.0,30.0,-100.00,WNW,295,22.0,27.0,56,-99.99,,,-99.99,,2013-02-13 21:21:00,
2013-02-13 15:31:00,45.0,30.0,-100.00,WNW,295,22.0,27.0,56,-99.99,,,-99.99,,2013-02-13 21:31:00,
2013-02-13 15:42:00,45.0,32.0,-100.00,WNW,290,20.0,24.0,60,-99.99,,,-99.99,,2013-02-13 21:42:00,
2013-02-13 15:52:00,45.0,32.0,-100.00,WNW,295,16.0,23.0,60,-99.99,,,-99.99,,2013-02-13 21:52:00,
2013-02-13 16:02:00,45.0,32.0,-100.00,WNW,295,16.0,23.0,60,-99.99,,,-99.99,,2013-02-13 22:02:00,
2013-02-13 16:11:00,45.0,33.0,-100.00,WNW,300,15.0,22.0,62,-99.99,,,-99.99,,2013-02-13 22:11:00,
2013-02-13 16:21:00,46.0,33.0,-100.00,WNW,295,16.0,24.0,60,-99.99,,,-99.99,,2013-02-13 22:21:00,
2013-02-13 16:31:00,46.0,33.0,-100.00,WNW,295,16.0,24.0,60,-99.99,,,-99.99,,2013-02-13 22:31:00,
2013-02-13 16:42:00,46.0,33.0,-100.00,NW,325,17.0,24.0,60,-99.99,,,-99.99,,2013-02-13 22:42:00,
2013-02-13 16:52:00,46.0,33.0,-100.00,NW,315,19.0,23.0,61,-99.99,,,-99.99,,2013-02-13 22:52:00,
2013-02-13 17:01:00,46.0,33.0,-100.00,NW,315,19.0,23.0,61,-99.99,,,-99.99,,2013-02-13 23:01:00,
2013-02-13 17:11:00,46.0,33.0,-100.00,NW,315,19.0,23.0,61,-99.99,,,-99.99,,2013-02-13 23:11:00,
2013-02-13 17:21:00,46.0,34.0,-100.00,NW,315,11.0,21.0,64,-99.99,,,-99.99,,2013-02-13 23:21:00,
2013-02-13 17:32:00,46.0,34.0,-100.00,NW,315,11.0,21.0,64,-99.99,,,-99.99,,2013-02-13 23:32:00,
2013-02-13 17:42:00,46.0,34.0,-100.00,NW,310,13.0,19.0,64,-99.99,,,-99.99,,2013-02-13 23:42:00,
2013-02-13 17:52:00,45.0,35.0,-100.00,NW,310,10.0,16.0,67,-99.99,,,-99.99,,2013-02-13 23:52:00,
2013-02-13 18:02:00,45.0,35.0,-100.00,NW,310,10.0,16.0,67,-99.99,,,-99.99,,2013-02-14 00:02:00,
2013-02-13 18:11:00,45.0,35.0,-100.00,WNW,295,10.0,11.0,69,-99.99,,,-99.99,,2013-02-14 00:11:00,
2013-02-13 18:21:00,44.0,35.0,-100.00,WNW,300,10.0,11.0,70,-99.99,,,-99.99,,2013-02-14 00:21:00,
2013-02-13 18:32:00,44.0,35.0,-100.00,WNW,300,10.0,11.0,70,-99.99,,,-99.99,,2013-02-14 00:32:00,
2013-02-13 18:42:00,44.0,35.0,-100.00,WNW,300,9.0,10.0,72,-99.99,,,-99.99,,2013-02-14 00:42:00,
2013-02-13 18:52:00,43.0,36.0,-100.00,WNW,290,4.0,8.0,75,-99.99,,,-99.99,,2013-02-14 00:52:00,
2013-02-13 19:01:00,43.0,36.0,-100.00,WNW,290,4.0,8.0,75,-99.99,,,-99.99,,2013-02-14 01:01:00,
2013-02-13 19:11:00,42.0,36.0,-100.00,WSW,255,4.0,8.0,77,-99.99,,,-99.99,,2013-02-14 01:11:00,
2013-02-13 19:21:00,42.0,36.0,-100.00,West,275,1.0,3.0,79,-99.99,,,-99.99,,2013-02-14 01:21:00,
2013-02-13 19:32:00,42.0,36.0,-100.00,West,275,1.0,3.0,79,-99.99,,,-99.99,,2013-02-14 01:32:00,
2013-02-13 19:41:00,42.0,36.0,-100.00,West,275,1.0,3.0,79,-99.99,,,-99.99,,2013-02-14 01:41:00,
2013-02-13 19:52:00,41.0,35.0,-100.00,SW,230,4.0,5.0,81,-99.99,,,-99.99,,2013-02-14 01:52:00,
2013-02-13 20:01:00,41.0,35.0,-100.00,SW,230,4.0,5.0,81,-99.99,,,-99.99,,2013-02-14 02:01:00,
2013-02-13 20:11:00,40.0,35.0,-100.00,West,275,1.0,6.0,81,-99.99,,,-99.99,,2013-02-14 02:11:00,
2013-02-13 20:21:00,39.0,35.0,-100.00,WSW,240,4.0,5.0,84,-99.99,,,-99.99,,2013-02-14 02:21:00,
2013-02-13 20:31:00,39.0,35.0,-100.00,WSW,240,4.0,5.0,84,-99.99,,,-99.99,,2013-02-14 02:31:00,
2013-02-13 20:41:00,39.0,35.0,-100.00,WSW,240,4.0,5.0,84,-99.99,,,-99.99,,2013-02-14 02:41:00,
2013-02-13 21:02:00,39.0,36.0,-100.00,WSW,255,5.0,5.0,88,-99.99,,,-99.99,,2013-02-14 03:02:00,
2013-02-13 21:11:00,39.0,36.0,-100.00,WSW,250,4.0,6.0,90,-99.99,,,-99.99,,2013-02-14 03:11:00,
2013-02-13 21:22:00,39.0,36.0,-100.00,WSW,255,5.0,7.0,90,-99.99,,,-99.99,,2013-02-14 03:22:00,
2013-02-13 21:31:00,39.0,36.0,-100.00,WSW,255,5.0,7.0,90,-99.99,,,-99.99,,2013-02-14 03:31:00,
2013-02-13 21:42:00,38.0,36.0,-100.00,WSW,255,4.0,7.0,90,-99.99,,,-99.99,,2013-02-14 03:42:00,
2013-02-13 21:52:00,38.0,35.0,-100.00,West,270,5.0,6.0,91,-99.99,,,-99.99,,2013-02-14 03:52:00,
2013-02-13 22:01:00,38.0,35.0,-100.00,West,270,5.0,6.0,91,-99.99,,,-99.99,,2013-02-14 04:01:00,
2013-02-13 22:12:00,37.0,35.0,-100.00,WSW,250,4.0,7.0,92,-99.99,,,-99.99,,2013-02-14 04:12:00,
2013-02-13 22:21:00,37.0,36.0,-100.00,SW,235,4.0,8.0,93,-99.99,,,-99.99,,2013-02-14 04:21:00,
2013-02-13 22:31:00,37.0,36.0,-100.00,SW,235,4.0,8.0,93,-99.99,,,-99.99,,2013-02-14 04:31:00,
2013-02-13 22:41:00,37.0,36.0,-100.00,SW,235,4.0,8.0,93,-99.99,,,-99.99,,2013-02-14 04:41:00,
2013-02-13 22:52:00,38.0,36.0,-100.00,West,260,5.0,8.0,94,-99.99,,,-99.99,,2013-02-14 04:52:00,
2013-02-13 23:02:00,38.0,36.0,-100.00,West,260,5.0,8.0,94,-99.99,,,-99.99,,2013-02-14 05:02:00,
2013-02-13 23:11:00,38.0,37.0,-100.00,West,275,4.0,6.0,94,-99.99,,,-99.99,,2013-02-14 05:11:00,
2013-02-13 23:22:00,38.0,37.0,-100.00,West,275,5.0,7.0,94,-99.99,,,-99.99,,2013-02-14 05:22:00,
2013-02-13 23:32:00,38.0,37.0,-100.00,West,275,5.0,7.0,94,-99.99,,,-99.99,,2013-02-14 05:32:00,
2013-02-13 23:42:00,38.0,37.0,-100.00,WSW,240,4.0,7.0,95,-99.99,,,-99.99,,2013-02-14 05:42:00,
2013-02-13 23:52:00,38.0,37.0,-100.00,West,265,4.0,6.0,95,-99.99,,,-99.99,,2013-02-14 05:52:00,